HG8LXL-2 Weather Reports


time (UTC)temp
C
wind
direction
speed
KPH
gust
KPH
rain 1hr
cm
rain 24hr
cm
rain mn
cm
humidity
%
barometer
mb
20260507080004 25 0.0 0.0 0.00 0.00 0.00 48 1010.4
20260507075503 25 0.0 0.0 0.00 0.00 0.00 47 1010.3
20260507075003 25 0.0 0.0 0.00 0.00 0.00 49 1010.4
20260507074503 25 0.0 0.0 0.00 0.00 0.00 51 1010.4
20260507074003 24 0.0 0.0 0.00 0.00 0.00 51 1010.3
20260507073503 24 0.0 0.0 0.00 0.00 0.00 51 1010.4
20260507073004 24 0.0 0.0 0.00 0.00 0.00 54 1010.3
20260507072503 23 0.0 0.0 0.00 0.00 0.00 54 1010.5
20260507072003 23 0.0 0.0 0.00 0.00 0.00 55 1010.4
20260507071504 24 0.0 0.0 0.00 0.00 0.00 54 1010.4
20260507071003 23 0.0 0.0 0.00 0.00 0.00 56 1010.4
20260507070503 23 0.0 0.0 0.00 0.00 0.00 57 1010.4
20260507070007 23 0.0 0.0 0.00 0.00 0.00 58 1010.4
20260507065503 23 0.0 0.0 0.00 0.00 0.00 58 1010.3
20260507065004 23 0.0 0.0 0.00 0.00 0.00 59 1010.2
20260507064504 22 0.0 0.0 0.00 0.00 0.00 60 1010.3
20260507064003 22 0.0 0.0 0.00 0.00 0.00 60 1010.3
20260507063503 22 0.0 0.0 0.00 0.00 0.00 61 1010.3
20260507063004 22 0.0 0.0 0.00 0.00 0.00 61 1010.2
20260507062503 22 0.0 0.0 0.00 0.00 0.00 60 1010.2
20260507062003 23 0.0 0.0 0.00 0.00 0.00 61 1010.1
20260507061503 22 0.0 0.0 0.00 0.00 0.00 61 1010.1
20260507061003 22 0.0 0.0 0.00 0.00 0.00 61 1010.1
20260507060003 22 0.0 0.0 0.00 0.00 0.00 62 1010.0
20260507055503 21 0.0 0.0 0.00 0.00 0.00 61 1010.0
20260507055003 21 0.0 0.0 0.00 0.00 0.00 60 1010.0
20260507054503 21 0.0 0.0 0.00 0.00 0.00 59 1010.0
20260507054003 21 0.0 0.0 0.00 0.00 0.00 59 1010.0
20260507053503 22 0.0 0.0 0.00 0.00 0.00 57 1010.0
20260507053004 22 0.0 0.0 0.00 0.00 0.00 55 1009.9
20260507052503 22 0.0 0.0 0.00 0.00 0.00 54 1009.8
20260507052003 22 0.0 0.0 0.00 0.00 0.00 56 1009.8
20260507051503 22 0.0 0.0 0.00 0.00 0.00 55 1009.7
20260507051003 22 0.0 0.0 0.00 0.00 0.00 55 1009.7
20260507050503 22 0.0 0.0 0.00 0.00 0.00 56 1009.5
20260507050003 22 0.0 0.0 0.00 0.00 0.00 57 1009.6
20260507045503 22 0.0 0.0 0.00 0.00 0.00 57 1009.4
20260507045003 21 0.0 0.0 0.00 0.00 0.00 57 1009.5
20260507044503 21 0.0 0.0 0.00 0.00 0.00 58 1009.4
20260507044003 21 0.0 0.0 0.00 0.00 0.00 59 1009.3
20260507043503 21 0.0 0.0 0.00 0.00 0.00 58 1009.3
20260507043003 21 0.0 0.0 0.00 0.00 0.00 58 1009.2
20260507042503 21 0.0 0.0 0.00 0.00 0.00 58 1009.2
20260507042003 21 0.0 0.0 0.00 0.00 0.00 58 1009.2
20260507041503 21 0.0 0.0 0.00 0.00 0.00 59 1009.2
20260507041003 21 0.0 0.0 0.00 0.00 0.00 60 1009.2
20260507040503 21 0.0 0.0 0.00 0.00 0.00 60 1009.2
20260507040004 21 0.0 0.0 0.00 0.00 0.00 60 1009.2
20260507035503 21 0.0 0.0 0.00 0.00 0.00 57 1009.0
20260507035003 21 0.0 0.0 0.00 0.00 0.00 57 1008.8
20260507034503 21 0.0 0.0 0.00 0.00 0.00 57 1008.8
20260507034003 21 0.0 0.0 0.00 0.00 0.00 57 1008.7
20260507033503 21 0.0 0.0 0.00 0.00 0.00 56 1008.8
20260507033003 21 0.0 0.0 0.00 0.00 0.00 57 1008.7
20260507032504 21 0.0 0.0 0.00 0.00 0.00 57 1008.7
20260507032003 21 0.0 0.0 0.00 0.00 0.00 58 1008.7
20260507031503 21 0.0 0.0 0.00 0.00 0.00 58 1008.6
20260507031003 21 0.0 0.0 0.00 0.00 0.00 58 1008.5
20260507030503 21 0.0 0.0 0.00 0.00 0.00 58 1008.4
20260507030003 21 0.0 0.0 0.00 0.00 0.00 57 1008.5
20260507025504 21 0.0 0.0 0.00 0.00 0.00 57 1008.4
20260507025003 21 0.0 0.0 0.00 0.00 0.00 57 1008.4
20260507024503 21 0.0 0.0 0.00 0.00 0.00 57 1008.5
20260507024003 21 0.0 0.0 0.00 0.00 0.00 57 1008.3
20260507023503 21 0.0 0.0 0.00 0.00 0.00 56 1008.3
20260507023003 21 0.0 0.0 0.00 0.00 0.00 56 1008.3
20260507022513 21 0.0 0.0 0.00 0.00 0.00 57 1008.4
20260507022003 22 0.0 0.0 0.00 0.00 0.00 56 1008.3
20260507021503 21 0.0 0.0 0.00 0.00 0.00 56 1008.4
20260507021003 21 0.0 0.0 0.00 0.00 0.00 56 1008.3
20260507020503 22 0.0 0.0 0.00 0.00 0.00 56 1008.3
20260507020003 21 0.0 0.0 0.00 0.00 0.00 56 1008.2
20260507015503 21 0.0 0.0 0.00 0.00 0.00 55 1008.3
20260507015004 21 0.0 0.0 0.00 0.00 0.00 55 1008.2
20260507014503 21 0.0 0.0 0.00 0.00 0.00 56 1008.2
20260507014003 21 0.0 0.0 0.00 0.00 0.00 57 1008.1
20260507013503 21 0.0 0.0 0.00 0.00 0.00 55 1008.2
20260507013003 21 0.0 0.0 0.00 0.00 0.00 56 1008.2
20260507012504 21 0.0 0.0 0.00 0.00 0.00 56 1008.2
20260507012003 22 0.0 0.0 0.00 0.00 0.00 55 1008.0
20260507011503 22 0.0 0.0 0.00 0.00 0.00 54 1007.9
20260507011003 22 0.0 0.0 0.00 0.00 0.00 53 1007.8
20260507010503 22 0.0 0.0 0.00 0.00 0.00 53 1007.8
20260507010003 22 0.0 0.0 0.00 0.00 0.00 52 1007.7
20260507005503 22 0.0 0.0 0.00 0.00 0.00 52 1007.6
20260507005003 21 0.0 0.0 0.00 0.00 0.00 53 1007.6
20260507004503 22 0.0 0.0 0.00 0.00 0.00 52 1007.5
20260507004003 22 0.0 0.0 0.00 0.00 0.00 50 1007.6
20260507003503 22 0.0 0.0 0.00 0.00 0.00 49 1007.7
20260507003003 22 0.0 0.0 0.00 0.00 0.00 45 1007.8
20260507002503 22 0.0 0.0 0.00 0.00 0.00 44 1007.9
20260507002003 22 0.0 0.0 0.00 0.00 0.00 43 1007.9
20260507001503 22 0.0 0.0 0.00 0.00 0.00 44 1007.9
20260507001003 22 0.0 0.0 0.00 0.00 0.00 44 1007.8
20260507000503 22 0.0 0.0 0.00 0.00 0.00 45 1007.8
20260507000003 21 0.0 0.0 0.00 0.00 0.00 45 1007.8
20260506235503 22 0.0 0.0 0.00 0.00 0.00 44 1007.8
20260506235003 22 0.0 0.0 0.00 0.00 0.00 43 1007.9
20260506234503 22 0.0 0.0 0.00 0.00 0.00 43 1007.9
20260506234003 21 0.0 0.0 0.00 0.00 0.00 44 1008.0
20260506233503 21 0.0 0.0 0.00 0.00 0.00 44 1008.0
20260506233003 22 0.0 0.0 0.00 0.00 0.00 43 1008.0
20260506232503 22 0.0 0.0 0.00 0.00 0.00 42 1008.1
20260506232003 21 0.0 0.0 0.00 0.00 0.00 44 1008.2
20260506231504 21 0.0 0.0 0.00 0.00 0.00 44 1008.2
20260506231003 21 0.0 0.0 0.00 0.00 0.00 45 1008.3
20260506230503 21 0.0 0.0 0.00 0.00 0.00 44 1008.4
20260506230003 21 0.0 0.0 0.00 0.00 0.00 44 1008.5
20260506225503 21 0.0 0.0 0.00 0.00 0.00 43 1008.5
20260506225003 21 0.0 0.0 0.00 0.00 0.00 44 1008.5
20260506224503 21 0.0 0.0 0.00 0.00 0.00 43 1008.5
20260506224003 21 0.0 0.0 0.00 0.00 0.00 44 1008.5
20260506223503 21 0.0 0.0 0.00 0.00 0.00 43 1008.4
20260506223003 21 0.0 0.0 0.00 0.00 0.00 43 1008.5
20260506222503 21 0.0 0.0 0.00 0.00 0.00 43 1008.5
20260506222004 21 0.0 0.0 0.00 0.00 0.00 43 1008.3
20260506221504 21 0.0 0.0 0.00 0.00 0.00 43 1008.3
20260506221003 21 0.0 0.0 0.00 0.00 0.00 43 1008.2
20260506220503 20 0.0 0.0 0.00 0.00 0.00 44 1008.2
20260506220003 21 0.0 0.0 0.00 0.00 0.00 42 1007.9
20260506215503 21 0.0 0.0 0.00 0.00 0.00 42 1007.8
20260506215003 21 0.0 0.0 0.00 0.00 0.00 41 1007.8
20260506214503 22 0.0 0.0 0.00 0.00 0.00 40 1007.7
20260506214003 21 0.0 0.0 0.00 0.00 0.00 40 1007.6
20260506213503 22 0.0 0.0 0.00 0.00 0.00 39 1007.6
20260506213003 22 0.0 0.0 0.00 0.00 0.00 38 1007.5
20260506212503 22 0.0 0.0 0.00 0.00 0.00 38 1007.4
20260506212003 22 0.0 0.0 0.00 0.00 0.00 37 1007.5
20260506211503 22 0.0 0.0 0.00 0.00 0.00 38 1007.5
20260506211003 22 0.0 0.0 0.00 0.00 0.00 37 1007.5
20260506210503 22 0.0 0.0 0.00 0.00 0.00 39 1007.5
20260506210003 22 0.0 0.0 0.00 0.00 0.00 40 1007.4
20260506205503 22 0.0 0.0 0.00 0.00 0.00 39 1007.3
20260506205003 22 0.0 0.0 0.00 0.00 0.00 37 1007.1
20260506204503 22 0.0 0.0 0.00 0.00 0.00 38 1007.3
20260506204003 22 0.0 0.0 0.00 0.00 0.00 40 1007.2
20260506203503 23 0.0 0.0 0.00 0.00 0.00 36 1007.0
20260506203003 23 0.0 0.0 0.00 0.00 0.00 38 1006.9
20260506202503 23 0.0 0.0 0.00 0.00 0.00 38 1007.0
20260506202003 23 0.0 0.0 0.00 0.00 0.00 38 1006.9
20260506201504 23 0.0 0.0 0.00 0.00 0.00 38 1006.8
20260506201004 23 0.0 0.0 0.00 0.00 0.00 38 1006.8
20260506200503 23 0.0 0.0 0.00 0.00 0.00 38 1006.8
20260506200003 23 0.0 0.0 0.00 0.00 0.00 37 1006.8
20260506195503 23 0.0 0.0 0.00 0.00 0.00 36 1006.8
20260506195003 23 0.0 0.0 0.00 0.00 0.00 36 1006.7
20260506194503 24 0.0 0.0 0.00 0.00 0.00 35 1006.8
20260506194003 24 0.0 0.0 0.00 0.00 0.00 35 1006.8
20260506193503 24 0.0 0.0 0.00 0.00 0.00 35 1006.9
20260506193003 25 0.0 0.0 0.00 0.00 0.00 34 1006.8
20260506192503 25 0.0 0.0 0.00 0.00 0.00 34 1006.8
20260506192003 25 0.0 0.0 0.00 0.00 0.00 34 1006.7
20260506191503 25 0.0 0.0 0.00 0.00 0.00 34 1006.7
20260506191004 24 0.0 0.0 0.00 0.00 0.00 34 1006.7
20260506190503 25 0.0 0.0 0.00 0.00 0.00 34 1006.7
20260506190003 25 0.0 0.0 0.00 0.00 0.00 32 1006.7
20260506185503 25 0.0 0.0 0.00 0.00 0.00 32 1006.5
20260506185003 25 0.0 0.0 0.00 0.00 0.00 32 1006.5
20260506184503 26 0.0 0.0 0.00 0.00 0.00 31 1006.5
20260506184003 26 0.0 0.0 0.00 0.00 0.00 31 1006.4
20260506183503 26 0.0 0.0 0.00 0.00 0.00 31 1006.4
20260506183003 26 0.0 0.0 0.00 0.00 0.00 30 1006.3
20260506182503 26 0.0 0.0 0.00 0.00 0.00 30 1006.3
20260506182004 26 0.0 0.0 0.00 0.00 0.00 30 1006.3
20260506181503 26 0.0 0.0 0.00 0.00 0.00 30 1006.1
20260506181003 27 0.0 0.0 0.00 0.00 0.00 29 1006.2
20260506180503 27 0.0 0.0 0.00 0.00 0.00 29 1006.2
20260506180004 27 0.0 0.0 0.00 0.00 0.00 28 1006.1
20260506175503 27 0.0 0.0 0.00 0.00 0.00 27 1006.1
20260506175003 27 0.0 0.0 0.00 0.00 0.00 27 1006.1
20260506174503 27 0.0 0.0 0.00 0.00 0.00 27 1006.0
20260506174003 27 0.0 0.0 0.00 0.00 0.00 27 1006.0
20260506173503 28 0.0 0.0 0.00 0.00 0.00 26 1006.0
20260506173003 28 0.0 0.0 0.00 0.00 0.00 26 1006.0
20260506172503 29 0.0 0.0 0.00 0.00 0.00 24 1006.0
20260506172003 29 0.0 0.0 0.00 0.00 0.00 24 1006.0
20260506171503 29 0.0 0.0 0.00 0.00 0.00 24 1006.0
20260506171003 30 0.0 0.0 0.00 0.00 0.00 23 1006.0
20260506170503 30 0.0 0.0 0.00 0.00 0.00 23 1005.9
20260506170003 30 0.0 0.0 0.00 0.00 0.00 23 1005.9
20260506165503 30 0.0 0.0 0.00 0.00 0.00 22 1005.9
20260506165003 30 0.0 0.0 0.00 0.00 0.00 22 1005.9
20260506164503 30 0.0 0.0 0.00 0.00 0.00 21 1005.9
20260506164003 30 0.0 0.0 0.00 0.00 0.00 22 1005.9
20260506162503 30 0.0 0.0 0.00 0.00 0.00 21 1005.9
20260506161503 30 0.0 0.0 0.00 0.00 0.00 21 1005.9
20260506161005 30 0.0 0.0 0.00 0.00 0.00 21 1006.0
20260506154504 30 0.0 0.0 0.00 0.00 0.00 20 1006.1
20260506154003 30 0.0 0.0 0.00 0.00 0.00 19 1006.2
20260506151503 30 0.0 0.0 0.00 0.00 0.00 19 1006.2
20260506151003 31 0.0 0.0 0.00 0.00 0.00 19 1006.2
20260506145003 31 0.0 0.0 0.00 0.00 0.00 18 1006.2
20260506144003 31 0.0 0.0 0.00 0.00 0.00 19 1006.3
20260506143503 32 0.0 0.0 0.00 0.00 0.00 19 1006.2
20260506143003 31 0.0 0.0 0.00 0.00 0.00 18 1006.4
20260506142503 30 0.0 0.0 0.00 0.00 0.00 20 1006.5
20260506142003 30 0.0 0.0 0.00 0.00 0.00 20 1006.6
20260506141503 31 0.0 0.0 0.00 0.00 0.00 20 1006.4
20260506141003 31 0.0 0.0 0.00 0.00 0.00 19 1006.5
20260506140503 31 0.0 0.0 0.00 0.00 0.00 19 1006.6
20260506140003 31 0.0 0.0 0.00 0.00 0.00 20 1006.6
20260506135503 31 0.0 0.0 0.00 0.00 0.00 19 1006.6
20260506135003 31 0.0 0.0 0.00 0.00 0.00 20 1006.7
20260506134503 30 0.0 0.0 0.00 0.00 0.00 20 1006.8
20260506134003 30 0.0 0.0 0.00 0.00 0.00 21 1006.8
20260506133503 30 0.0 0.0 0.00 0.00 0.00 20 1006.8
20260506133003 30 0.0 0.0 0.00 0.00 0.00 20 1006.9
20260506132503 30 0.0 0.0 0.00 0.00 0.00 20 1007.0
20260506132003 30 0.0 0.0 0.00 0.00 0.00 20 1007.0
20260506131503 30 0.0 0.0 0.00 0.00 0.00 20 1007.0
20260506131003 30 0.0 0.0 0.00 0.00 0.00 21 1007.0
20260506130503 30 0.0 0.0 0.00 0.00 0.00 20 1007.2
20260506130003 30 0.0 0.0 0.00 0.00 0.00 20 1007.2
20260506125503 30 0.0 0.0 0.00 0.00 0.00 20 1007.3
20260506125003 31 0.0 0.0 0.00 0.00 0.00 20 1007.3
20260506124503 31 0.0 0.0 0.00 0.00 0.00 20 1007.3
20260506124003 31 0.0 0.0 0.00 0.00 0.00 20 1007.3
20260506123503 30 0.0 0.0 0.00 0.00 0.00 20 1007.4
20260506123003 31 0.0 0.0 0.00 0.00 0.00 19 1007.4
20260506122503 30 0.0 0.0 0.00 0.00 0.00 20 1007.6
20260506122003 30 0.0 0.0 0.00 0.00 0.00 20 1007.5
20260506121503 30 0.0 0.0 0.00 0.00 0.00 20 1007.5
20260506121003 30 0.0 0.0 0.00 0.00 0.00 20 1007.6
20260506120503 31 0.0 0.0 0.00 0.00 0.00 20 1007.6
20260506120003 30 0.0 0.0 0.00 0.00 0.00 20 1007.6
20260506115503 30 0.0 0.0 0.00 0.00 0.00 21 1007.6
20260506115003 30 0.0 0.0 0.00 0.00 0.00 21 1007.7
20260506114503 30 0.0 0.0 0.00 0.00 0.00 21 1007.8
20260506114003 31 0.0 0.0 0.00 0.00 0.00 20 1007.7
20260506113503 31 0.0 0.0 0.00 0.00 0.00 20 1007.8
20260506113003 30 0.0 0.0 0.00 0.00 0.00 21 1008.0
20260506112503 30 0.0 0.0 0.00 0.00 0.00 21 1008.0
20260506112003 31 0.0 0.0 0.00 0.00 0.00 21 1008.0
20260506111503 30 0.0 0.0 0.00 0.00 0.00 22 1008.0
20260506111003 29 0.0 0.0 0.00 0.00 0.00 23 1008.1
20260506110503 30 0.0 0.0 0.00 0.00 0.00 22 1008.2
20260506110003 30 0.0 0.0 0.00 0.00 0.00 23 1008.2
20260506105503 28 0.0 0.0 0.00 0.00 0.00 24 1008.3
20260506105003 28 0.0 0.0 0.00 0.00 0.00 23 1008.3
20260506104503 29 0.0 0.0 0.00 0.00 0.00 24 1008.3
20260506104003 28 0.0 0.0 0.00 0.00 0.00 25 1008.5
20260506103503 28 0.0 0.0 0.00 0.00 0.00 25 1008.5
20260506103003 28 0.0 0.0 0.00 0.00 0.00 25 1008.6
20260506102503 28 0.0 0.0 0.00 0.00 0.00 25 1008.6
20260506102003 29 0.0 0.0 0.00 0.00 0.00 24 1008.5
20260506101503 29 0.0 0.0 0.00 0.00 0.00 24 1008.5
20260506101003 29 0.0 0.0 0.00 0.00 0.00 24 1008.5
20260506100503 28 0.0 0.0 0.00 0.00 0.00 24 1008.6
20260506100003 29 0.0 0.0 0.00 0.00 0.00 23 1008.6
20260506095503 29 0.0 0.0 0.00 0.00 0.00 23 1008.6
20260506095003 28 0.0 0.0 0.00 0.00 0.00 24 1008.8
20260506094503 28 0.0 0.0 0.00 0.00 0.00 24 1008.7
20260506094003 28 0.0 0.0 0.00 0.00 0.00 24 1008.8
20260506093503 28 0.0 0.0 0.00 0.00 0.00 25 1008.8
20260506093003 28 0.0 0.0 0.00 0.00 0.00 25 1008.7
20260506092503 29 0.0 0.0 0.00 0.00 0.00 24 1008.6
20260506092003 29 0.0 0.0 0.00 0.00 0.00 24 1008.7
20260506091503 29 0.0 0.0 0.00 0.00 0.00 24 1008.6
20260506091003 27 0.0 0.0 0.00 0.00 0.00 26 1008.7
20260506090503 27 0.0 0.0 0.00 0.00 0.00 27 1008.7
20260506090003 28 0.0 0.0 0.00 0.00 0.00 26 1008.8
20260506085503 28 0.0 0.0 0.00 0.00 0.00 26 1008.8
20260506085003 28 0.0 0.0 0.00 0.00 0.00 27 1008.8
20260506084503 27 0.0 0.0 0.00 0.00 0.00 26 1008.8
20260506084003 27 0.0 0.0 0.00 0.00 0.00 26 1008.8
20260506083503 27 0.0 0.0 0.00 0.00 0.00 27 1008.9
20260506083003 27 0.0 0.0 0.00 0.00 0.00 26 1008.8
20260506082503 27 0.0 0.0 0.00 0.00 0.00 27 1008.8
20260506082003 27 0.0 0.0 0.00 0.00 0.00 27 1008.7
20260506081503 27 0.0 0.0 0.00 0.00 0.00 27 1008.7
20260506081003 27 0.0 0.0 0.00 0.00 0.00 27 1008.7
20260506080503 27 0.0 0.0 0.00 0.00 0.00 28 1008.8